Regional Weather Roundup
Issued by NWS

Home | Current Version | Previous Version | Graphics & Text | Print | Product List | Glossary On
Versions: 1 2 3 4 5 6 7 8 9 10 11 12 13 14 15 16 17 18 19 20 21 22 23 24 25 26 27 28 29 30 31 32 33 34 35 36 37 38 39 40 41 42 43 44 45 46 47 48 49 50
000
ASUS43 KMKX 250921
RWRWI

WISCONSIN REGIONAL WEATHER ROUNDUP
NATIONAL WEATHER SERVICE MILWAUKEE/SULLIVAN WI
400 AM CDT SAT APR 25 2015

NOTE: "FAIR" INDICATES FEW OR NO CLOUDS BELOW 12,000 FEET WITH NO
SIGNIFICANT WEATHER AND/OR OBSTRUCTIONS TO VISIBILITY.

WIZ001-002-006>008-014>016-023>028-251000-
NORTHWEST WISCONSIN

CITY           SKY/WX    TMP DP  RH WIND       PRES   REMARKS
SUPERIOR ARPT  CLOUDY    35  31  87 NE13      29.94S WCI  26
ASHLAND        CLOUDY    37  31  78 NE7       29.94S WCI  32
HAYWARD        CLOUDY    42  32  67 SE7       29.89S
SIREN          CLOUDY    45  32  61 E6        29.86F
CUMBERLAND     CLOUDY    41  32  70 E9G17     29.87S
RICE LAKE      CLOUDY    42  32  69 E12       29.89S
CHETEK         CLOUDY    41  33  72 E7        29.88S
LADYSMITH      CLOUDY    41  32  70 E6        29.91R
EAU CLAIRE     CLOUDY    41  34  76 E12       29.86S
MENOMONIE      CLOUDY    42  36  78 E14       29.86R
NEW RICHMOND   CLOUDY    42  35  76 E12       29.84S
OSCEOLA        CLOUDY    44  36  73 E8        29.86S
$$

WIZ003>005-009-010-017-018-251000-
NORTH CENTRAL WISCONSIN

CITY           SKY/WX    TMP DP  RH WIND       PRES   REMARKS
MANITOWISH WTR CLOUDY    38  27  63 SE7       29.91S WCI  33
ARBOR VITAE    CLOUDY    39  24  55 SE9       29.91F WCI  33
WOODRUFF       CLOUDY    39  24  55 SE9       29.91F WCI  33
RHINELANDER    CLOUDY    36  21  54 E8        29.92S WCI  30
EAGLE RIVER    CLOUDY    36  19  49 E6        29.92S WCI  31
LAND O LAKES   CLOUDY    37  22  56 SE6       29.94S WCI  32
PHILLIPS       CLOUDY    37  27  65 E3        29.90R
TOMAHAWK       CLOUDY    37  18  45 CALM      29.91F
MEDFORD        CLOUDY    37  27  67 E5        29.89R WCI  33
MERRILL        CLOUDY    38  22  52 E6        29.91S WCI  33
$$

WIZ029-030-035-036-043>047-251000-
CENTRAL WISCONSIN

CITY           SKY/WX    TMP DP  RH WIND       PRES   REMARKS
WAUSAU         CLOUDY    38  22  52 E8        29.89S WCI  32
MOSINEE        CLOUDY    36  25  64 E9        29.90F WCI  29
MARSHFIELD     CLOUDY    37  31  78 E9        29.87F WCI  30
STEVENS POINT  CLOUDY    35  28  76 E7        29.90S WCI  29
WAUPACA        CLOUDY    39  32  76 NE5       29.92S
WAUTOMA        CLOUDY    38  37  96 NE6       29.90F WCI  33
WISC RAPIDS    CLOUDY    37  32  82 E8        29.90S WCI  31
CAMP DOUGLAS   CLOUDY    38  38 100 E12       29.86S WCI  31
$$

WIZ011>013-019>022-031-037>040-048>050-251000-
NORTHEAST WISCONSIN

CITY           SKY/WX    TMP DP  RH WIND       PRES   REMARKS
ANTIGO         CLOUDY    35  21  57 E8        29.92S WCI  28
SHAWANO        CLOUDY    40  27  58 E10       29.93F WCI  34
OCONTO         CLOUDY    38  23  55 NE7       29.94F WCI  32
STURGEON BAY   CLOUDY    36  21  55 E8        29.96F WCI  29
GREEN BAY      CLOUDY    40  27  59 NE12      29.92F WCI  33
MANITOWOC      CLOUDY    39  31  72 VRB3      29.92F
APPLETON       CLOUDY    37  27  65 E8        29.91S WCI  31
CLINTONVILLE   CLOUDY    37  23  56 E7        29.92S WCI  32
OSHKOSH        CLOUDY    40  34  79 E8        29.89F WCI  34
$$

WIZ032>034-041-042-053>061-251000-
SOUTHWEST WISCONSIN

CITY           SKY/WX    TMP DP  RH WIND       PRES   REMARKS
LA CROSSE      CLOUDY    43  35  73 E6        29.83F
SPARTA         CLOUDY    39  35  86 E9        29.86S WCI  33
VIROQUA        CLOUDY    38  36  92 E14       29.80F WCI  30
BOSCOBEL       CLOUDY    42  35  76 E8        29.82F
PRAIRIE DU CHI CLOUDY    42  34  72 E9G17     29.79S
PLATTEVILLE    CLOUDY    40  36  83 E17G24    29.77F WCI  32
$$

WIZ056-057-062-063-064-067-068-251000-
SOUTH CENTRAL WISCONSIN

CITY           SKY/WX    TMP DP  RH WIND       PRES   REMARKS
REEDSBURG      CLOUDY    38  35  89 E8        29.84F WCI  32
BARABOO/DELLS  CLOUDY    37  34  86 E10       29.85F WCI  30
LONE ROCK      CLOUDY    41  34  76 E14       29.83F
MINERAL POINT  CLOUDY    41  36  81 E13       29.79F
MADISON        CLOUDY    40  33  76 E7G22     29.84F
MIDDLETON      CLOUDY    41  33  74 E8        29.84F
WATERTOWN      CLOUDY    39  35  85 E12G18    29.85F WCI  31
MONROE         CLOUDY    39  36  87 NE13G20   29.79F WCI  32
JANESVILLE     CLOUDY    41  36  81 E14       29.81F
$$

WIZ051-052-058>065-066-070>072-251000-
SOUTHEAST WISCONSIN

CITY           SKY/WX    TMP DP  RH WIND       PRES   REMARKS
MILWAUKEE      CLOUDY    39  34  82 NE9       29.88F WCI  33
WAUKESHA       CLOUDY    36  32  87 E8        29.87F WCI  29
MILWAUKEE/TIMM CLOUDY    37  32  81 NE3       29.88F
RACINE         CLOUDY    41  36  82 E12       29.88S
BURLINGTON     CLOUDY    39  35  85 E14       29.84F WCI  31
KENOSHA        CLOUDY    41  37  86 E14       29.85F
FOND DU LAC    CLOUDY    40  34  79 E9        29.88F WCI  34
SHEBOYGAN      PTCLDY    35  32  88 NE5       29.90F WCI  31
WEST BEND      CLOUDY    37  32  81 E9        29.88S WCI  31
JUNEAU         CLOUDY    38  33  81 E12       29.88F WCI  31
$$

LSZ147-162-251000-
LAKE SUPERIOR

STATION/POSITION TIME  TEMP    WIND        PRES    WAVE
                       AIR SEA DIR/SP/G            HT/PER
                 (UTC) (F)     (DEG/KT/KT) (MB)    (FT/S)
W MID LAKE BUOY  0850   34 34   60/ 16/ 17 1016.8S   3/ 4
DEVILS ISLAND    0900   35      60/ 20/ 24 1015.6R
PORT WING        0800   37      40/ 16/ 18 1013.9R
SAXON HARBOR     0800   38      60/  6/  8 1013.5R
$$

LMZ867-665-643>646-251000-
LAKE MICHIGAN

STATION/POSITION TIME  TEMP    WIND        PRES    WAVE
                       AIR SEA DIR/SP/G            HT/PER
                 (UTC) (F)     (DEG/KT/KT) (MB)    (FT/S)
CHAMBERS ISLAND  0800   39      40/  9/ 11 1015.2F
NORTHPORT PIER   0800   36      90/ 11/ 14 1015.6F
SISTER BAY       0817   37     100/ 10/ 14   N/A
KEWAUNEE LAKESHO 0800   38      40/  9/ 11 1013.3F
SHEBOYGAN LAKESH 0900   38      20/  9/ 10 1013.4F
PORT WASHINGTON  0800   40      50/  9/ 12 1012.9F
MILWAUKEE LAKESH 0900   39      40/  6/  8   N/A
KENOSHA   LAKESH 0900   40      90/ 17/ 19 1011.2F
$$

TC  - TEMPERATURE IN CELSIUS
VSB - VISIBILITY IN STATUTE MILES
WCI - WIND CHILL INDEX
HX  - HEAT INDEX



USA.gov is the U.S. government's official web portal to all federal, state and local government web resources and services.